When you browse on this site, cookies collect data to enhance your experience and personalize the content and advertising you see.
Visit our Privacy Policy to learn more. By continuing to use the site, you agree to this use of cookies and data.
  • Em Portugal
  • Lista de países
  • Para 7 dias
  • Temperatura da água
  • Mapa do tempo
  • Widgets de tempo
  • user-avatar
    Iniciar Sessão

    Previsão horária em Krasnyy

    Hoje, 21 Agosto, Quarta-feira

    Tempo Temperatura Precipitação Vento Pressão Humidade
    00:00 +18°C° 0 mm 1 m/s 754 mmHg 92%
    01:00 +18°C° 0 mm 1 m/s 754 mmHg 93%
    02:00 +18°C° 0 mm 1 m/s 754 mmHg 93%
    03:00 +16°C° 0 mm 1 m/s 754 mmHg 94%
    04:00 +18°C° 0 mm 1 m/s 754 mmHg 94%
    05:00 +18°C° 0 mm 1 m/s 754 mmHg 93%
    06:00 +18°C° 0 mm 1 m/s 755 mmHg 93%
    07:00 +20°C° 0 mm 1 m/s 755 mmHg 85%
    08:00 +22°C° 0 mm 1 m/s 755 mmHg 77%
    09:00 +24°C° 0 mm 1 m/s 755 mmHg 69%
    10:00 +25°C° 0 mm 1 m/s 755 mmHg 64%
    11:00 +26°C° 0 mm 1 m/s 755 mmHg 59%
    12:00 +28°C° 0 mm 2 m/s 755 mmHg 55%
    13:00 +28°C° 0 mm 2 m/s 755 mmHg 54%
    14:00 +28°C° 0 mm 2 m/s 754 mmHg 54%
    15:00 +29°C° 0 mm 2 m/s 754 mmHg 54%
    16:00 +28°C° 0 mm 2 m/s 754 mmHg 60%
    17:00 +27°C° 0 mm 1 m/s 754 mmHg 66%
    18:00 +26°C° 0 mm 1 m/s 754 mmHg 72%
    19:00 +25°C° 0 mm 1 m/s 754 mmHg 78%
    20:00 +23°C° 0 mm 1 m/s 754 mmHg 83%
    21:00 +19°C° 0 mm 0 m/s 754 mmHg 88%
    22:00 +21°C° 0 mm 1 m/s 754 mmHg 89%
    23:00 +21°C° 0 mm 1 m/s 753 mmHg 91%

    Amanhã, 22 Agosto, Quinta-feira

    Tempo Temperatura Precipitação Vento Pressão Humidade
    00:00 +20°C° 0 mm 1 m/s 753 mmHg 92%
    01:00 +20°C° 0 mm 1 m/s 754 mmHg 92%
    02:00 +20°C° 0 mm 1 m/s 754 mmHg 93%
    03:00 +17°C° 0 mm 0 m/s 754 mmHg 93%
    04:00 +17°C° 0 mm 0 m/s 753 mmHg 92%
    05:00 +18°C° 0 mm 0 m/s 753 mmHg 91%
    06:00 +20°C° 0 mm 1 m/s 753 mmHg 90%
    07:00 +22°C° 0 mm 1 m/s 753 mmHg 83%
    08:00 +23°C° 0 mm 1 m/s 753 mmHg 75%
    09:00 +25°C° 0 mm 1 m/s 753 mmHg 68%
    10:00 +26°C° 0 mm 1 m/s 753 mmHg 63%
    11:00 +28°C° 0 mm 1 m/s 753 mmHg 59%
    12:00 +29°C° 0 mm 1 m/s 753 mmHg 54%
    13:00 +29°C° 0 mm 1 m/s 752 mmHg 53%
    14:00 +29°C° 0 mm 1 m/s 752 mmHg 51%
    15:00 +29°C° 0 mm 1 m/s 752 mmHg 50%
    16:00 +28°C° 0 mm 1 m/s 752 mmHg 56%
    17:00 +27°C° 0 mm 1 m/s 751 mmHg 61%
    18:00 +27°C° 0 mm 1 m/s 751 mmHg 67%
    19:00 +25°C° 0 mm 1 m/s 751 mmHg 71%
    20:00 +23°C° 0 mm 1 m/s 752 mmHg 75%
    21:00 +20°C° 0 mm 0 m/s 752 mmHg 79%
    22:00 +22°C° 0 mm 1 m/s 752 mmHg 82%
    23:00 +20°C° 0 mm 2 m/s 752 mmHg 85%

    Depois de amanhã, 23 Agosto, Sexta-feira

    Tempo Temperatura Precipitação Vento Pressão Humidade
    00:00 +20°C° 0 mm 3 m/s 753 mmHg 88%
    01:00 +19°C° 0 mm 3 m/s 753 mmHg 89%
    02:00 +19°C° 0 mm 3 m/s 753 mmHg 90%
    03:00 +18°C° 0 mm 4 m/s 753 mmHg 91%
    04:00 +18°C° 0 mm 4 m/s 754 mmHg 90%
    05:00 +17°C° 0 mm 4 m/s 754 mmHg 89%
    06:00 +16°C° 0 mm 3 m/s 754 mmHg 89%
    07:00 +17°C° 0 mm 3 m/s 754 mmHg 83%
    08:00 +18°C° 0 mm 4 m/s 755 mmHg 78%
    09:00 +19°C° 0 mm 4 m/s 755 mmHg 72%
    10:00 +20°C° 0 mm 4 m/s 755 mmHg 66%
    11:00 +22°C° 0 mm 4 m/s 755 mmHg 60%
    12:00 +23°C° 0 mm 4 m/s 755 mmHg 54%
    13:00 +23°C° 0 mm 4 m/s 755 mmHg 52%
    14:00 +25°C° 0 mm 4 m/s 755 mmHg 50%
    15:00 +25°C° 0 mm 3 m/s 755 mmHg 48%
    16:00 +24°C° 0 mm 3 m/s 755 mmHg 53%
    17:00 +22°C° 0 mm 3 m/s 755 mmHg 58%
    18:00 +21°C° 0 mm 2 m/s 755 mmHg 63%
    19:00 +19°C° 0 mm 2 m/s 755 mmHg 67%
    20:00 +18°C° 0 mm 2 m/s 755 mmHg 71%
    21:00 +16°C° 0 mm 2 m/s 755 mmHg 75%
    22:00 +16°C° 0 mm 2 m/s 755 mmHg 77%
    23:00 +15°C° 0 mm 1 m/s 755 mmHg 80%

    24 Agosto, Sábado

    Tempo Temperatura Precipitação Vento Pressão Humidade
    00:00 +15°C° 0 mm 1 m/s 756 mmHg 82%
    01:00 +14°C° 0 mm 1 m/s 756 mmHg 85%
    02:00 +14°C° 0 mm 1 m/s 756 mmHg 88%
    03:00 +13°C° 0 mm 1 m/s 756 mmHg 91%
    04:00 +13°C° 0 mm 1 m/s 756 mmHg 90%
    05:00 +13°C° 0 mm 1 m/s 756 mmHg 90%
    06:00 +13°C° 0 mm 1 m/s 756 mmHg 89%
    07:00 +15°C° 0 mm 1 m/s 756 mmHg 81%
    08:00 +19°C° 0 mm 1 m/s 756 mmHg 73%
    09:00 +21°C° 0 mm 1 m/s 757 mmHg 64%
    10:00 +22°C° 0 mm 1 m/s 756 mmHg 59%
    11:00 +23°C° 0 mm 1 m/s 756 mmHg 53%
    12:00 +25°C° 0 mm 1 m/s 756 mmHg 47%
    13:00 +25°C° 0 mm 1 m/s 756 mmHg 47%
    14:00 +25°C° 0 mm 1 m/s 756 mmHg 47%
    15:00 +25°C° 0 mm 2 m/s 755 mmHg 46%
    16:00 +24°C° 0 mm 1 m/s 755 mmHg 52%
    17:00 +23°C° 0 mm 1 m/s 755 mmHg 58%
    18:00 +22°C° 0 mm 1 m/s 754 mmHg 64%
    19:00 +21°C° 0 mm 1 m/s 754 mmHg 67%
    20:00 +17°C° 0 mm 0 m/s 754 mmHg 71%
    21:00 +15°C° 0 mm 0 m/s 754 mmHg 74%
    22:00 +15°C° 0 mm 0 m/s 754 mmHg 76%
    23:00 +15°C° 0 mm 1 m/s 754 mmHg 78%

    25 Agosto, Domingo

    Tempo Temperatura Precipitação Vento Pressão Humidade
    00:00 +15°C° 0 mm 1 m/s 754 mmHg 79%
    01:00 +15°C° 0 mm 1 m/s 754 mmHg 80%
    02:00 +14°C° 0 mm 1 m/s 754 mmHg 82%
    03:00 +14°C° 0 mm 1 m/s 754 mmHg 83%
    04:00 +14°C° 0 mm 1 m/s 753 mmHg 83%
    05:00 +14°C° 0 mm 1 m/s 753 mmHg 83%
    06:00 +14°C° 0 mm 1 m/s 753 mmHg 83%
    07:00 +16°C° 0 mm 2 m/s 753 mmHg 77%
    08:00 +18°C° 0 mm 2 m/s 753 mmHg 70%
    09:00 +20°C° 0 mm 2 m/s 753 mmHg 64%
    10:00 +21°C° 0 mm 3 m/s 752 mmHg 60%
    11:00 +22°C° 0 mm 3 m/s 752 mmHg 56%
    12:00 +24°C° 0 mm 3 m/s 752 mmHg 52%
    13:00 +25°C° 0 mm 3 m/s 752 mmHg 52%
    14:00 +25°C° 0 mm 4 m/s 752 mmHg 52%
    15:00 +25°C° 0 mm 4 m/s 751 mmHg 52%
    16:00 +23°C° 0.3 mm 4 m/s 751 mmHg 61%
    17:00 +21°C° 0.3 mm 3 m/s 751 mmHg 70%
    18:00 +20°C° 0.3 mm 3 m/s 751 mmHg 79%
    19:00 +18°C° 0.2 mm 3 m/s 751 mmHg 84%
    20:00 +17°C° 0.2 mm 3 m/s 752 mmHg 89%
    21:00 +16°C° 0.2 mm 2 m/s 752 mmHg 94%
    22:00 +15°C° 0 mm 2 m/s 752 mmHg 94%
    23:00 +14°C° 0 mm 2 m/s 753 mmHg 94%

    26 Agosto, Segunda-feira

    Tempo Temperatura Precipitação Vento Pressão Humidade
    00:00 +13°C° 0 mm 2 m/s 753 mmHg 94%
    01:00 +13°C° 0 mm 2 m/s 753 mmHg 95%
    02:00 +12°C° 0 mm 2 m/s 754 mmHg 96%
    03:00 +12°C° 0 mm 2 m/s 754 mmHg 97%
    04:00 +11°C° 0 mm 3 m/s 754 mmHg 97%
    05:00 +10°C° 0 mm 3 m/s 755 mmHg 97%
    06:00 +10°C° 0 mm 3 m/s 755 mmHg 97%
    07:00 +11°C° 0 mm 3 m/s 755 mmHg 88%
    08:00 +12°C° 0 mm 4 m/s 756 mmHg 80%
    09:00 +13°C° 0 mm 4 m/s 756 mmHg 72%
    10:00 +14°C° 0 mm 4 m/s 757 mmHg 64%
    11:00 +15°C° 0 mm 4 m/s 757 mmHg 56%
    12:00 +17°C° 0 mm 4 m/s 757 mmHg 47%
    13:00 +18°C° 0 mm 4 m/s 757 mmHg 47%
    14:00 +18°C° 0 mm 3 m/s 757 mmHg 46%
    15:00 +18°C° 0 mm 3 m/s 757 mmHg 45%
    16:00 +18°C° 0 mm 3 m/s 757 mmHg 50%
    17:00 +17°C° 0 mm 2 m/s 757 mmHg 55%
    18:00 +16°C° 0 mm 2 m/s 757 mmHg 60%
    19:00 +14°C° 0 mm 2 m/s 757 mmHg 65%
    20:00 +13°C° 0 mm 1 m/s 757 mmHg 69%
    21:00 +11°C° 0 mm 1 m/s 757 mmHg 73%
    22:00 +10°C° 0 mm 1 m/s 757 mmHg 75%
    23:00 +10°C° 0 mm 1 m/s 757 mmHg 77%
    Mostrar mais